This is the latest recevied weather packets stored in our database for station/object KH6DH-13. If no packets are shown the sender has not sent any weather packets the latest 10 day(s).
| Time | Temp. | Humidity | Pressure | Rain* | Wind** | Luminosity | Snow |
|---|---|---|---|---|---|---|---|
| 1788646302 | 29.44° C | - | - | 0 mm | 2.24 m/s, 56° | - | - |
| 1788645701 | 28.89° C | - | - | 0 mm | 1.34 m/s, 134° | - | - |
| 1788645100 | 29.44° C | - | - | 0 mm | 2.24 m/s, 30° | - | - |
| 1788644499 | 29.44° C | - | - | 0 mm | 2.24 m/s, 90° | - | - |
| 1788643898 | 28.89° C | - | - | 0 mm | 0.89 m/s, 125° | - | - |
| 1788643297 | 28.89° C | - | - | 0 mm | 2.68 m/s, 83° | - | - |
| 1788642696 | 29.44° C | - | - | 0 mm | 1.79 m/s, 155° | - | - |
| 1788642095 | 28.89° C | - | - | 0 mm | 1.79 m/s, 8° | - | - |
| 1788641494 | 28.89° C | - | - | 0 mm | 1.79 m/s, 25° | - | - |
| 1788640914 | 28.33° C | - | - | 0 mm | 2.24 m/s, 89° | - | - |
| 1788640292 | 28.33° C | - | - | 0 mm | 2.68 m/s, 0° | - | - |
| 1788639691 | 28.33° C | - | - | 0 mm | 2.24 m/s, 30° | - | - |
| 1788639090 | 27.78° C | - | - | 0 mm | 2.68 m/s, 108° | - | - |
| 1788638489 | 27.22° C | - | - | 0 mm | 0.89 m/s, 108° | - | - |
| 1788637888 | 27.22° C | - | - | 0 mm | 1.34 m/s, 333° | - | - |
| 1788637287 | 27.22° C | - | - | 0 mm | 1.34 m/s, 101° | - | - |
| 1788636686 | 26.67° C | - | - | 0 mm | 2.68 m/s, 84° | - | - |
| 1788636085 | 26.67° C | - | - | 0 mm | 1.34 m/s, 66° | - | - |
| 1788635484 | 27.22° C | - | - | 0 mm | 0.45 m/s, 125° | - | - |
| 1788634883 | 26.11° C | - | - | 0 mm | 1.34 m/s, 101° | - | - |
| 1788634282 | 26.11° C | - | - | 0 mm | 2.24 m/s, 58° | - | - |
| 1788633681 | 26.11° C | - | - | 0 mm | 1.34 m/s, 302° | - | - |
| 1788633080 | 25.56° C | - | - | 0 mm | 1.34 m/s, 86° | - | - |
| 1788632479 | 25.56° C | - | - | 0 mm | 0.89 m/s, 65° | - | - |
| 1788631878 | 25.56° C | - | - | 0 mm | 0.45 m/s, 37° | - | - |
* Rain latest hour (hover to see other rain measurements)
** Current wind speed in m/s (hover to see current wind gust speed)